Tracking 31027 objects as of 19-Jul-2025
HD Live streaming from Space Station
objects crossing your sky now

STARLINK-2159

Track STARLINK-2159 now!
10-day predictions
STARLINK-2159 is classified as:


NORAD ID: 47745
Int'l Code: 2021-017Z
Perigee: 553.6 km
Apogee: 555.1 km
Inclination: 53.1 °
Period: 95.6 minutes
Semi major axis: 6925 km
RCS: Unknown
Launch date: March 4, 2021
Source: United States (US)
Launch site: AIR FORCE EASTERN TEST RANGE (AFETR)
Your satellite tracking list
FENGYUN 1C DEB
Track 1 satellite(s)




NASA's NSSDC Master Catalog

Two Line Element Set (TLE):
1 47745U 21017Z   25199.34141512 -.00000241  00000-0  27198-5 0  9995
2 47745  53.0538 183.6524 0001096  68.9785 291.1322 15.06393593242407
Source of the keplerian elements: AFSPC